Terminal Aerodrome Forecast
Issued by NWS

Home | Current Version | Previous Version | Text Only | Print | Product List | Glossary On
Versions: 1 2 3 4 5 6 7 8 9 10 11 12 13 14 15 16 17 18 19 20 21 22 23 24 25 26 27 28 29
000
FTUS46 KMFR 041401 AAB
TAFOTH
TAF AMD
KOTH 041401Z 0414/0512 35006KT 1/2SM FG OVC001
     FM041600 33012KT 2SM BR OVC005
     FM042000 35018G27KT P6SM SKC
     FM050200 36015KT P6SM BKN012
     FM050400 36006KT P6SM OVC006=

USA.gov is the U.S. government's official web portal to all federal, state and local government web resources and services.